TimeEST,TemperatureF,Dew PointF,Humidity,Sea Level PressureIn,VisibilityMPH,Wind Direction,Wind SpeedMPH,Gust SpeedMPH,PrecipitationIn,Events,Conditions,WindDirDegrees,DateUTC
12:15 AM,21.2,17.1,84,30.31,10.0,South,10.4,-,N/A,,Clear,180,2012-12-31 05:15:00
12:35 AM,22.5,17.8,82,30.32,10.0,South,8.1,-,N/A,,Clear,190,2012-12-31 05:35:00
1:15 AM,22.5,17.6,82,30.29,10.0,South,5.8,-,N/A,,Clear,180,2012-12-31 06:15:00
1:35 AM,21.7,17.1,82,30.28,10.0,South,8.1,-,N/A,,Clear,170,2012-12-31 06:35:00
1:55 AM,22.6,17.6,81,30.27,10.0,South,5.8,-,N/A,,Clear,170,2012-12-31 06:55:00
2:15 AM,22.5,17.6,82,30.27,10.0,South,5.8,-,N/A,,Clear,170,2012-12-31 07:15:00
2:35 AM,22.5,17.6,82,30.28,10.0,SSW,4.6,-,N/A,,Clear,210,2012-12-31 07:35:00
2:55 AM,22.8,17.6,80,30.27,10.0,South,5.8,-,N/A,,Clear,180,2012-12-31 07:55:00
3:15 AM,23.0,17.8,80,30.27,10.0,South,5.8,-,N/A,,Clear,190,2012-12-31 08:15:00
3:35 AM,23.0,17.8,80,30.25,10.0,South,6.9,-,N/A,,Clear,180,2012-12-31 08:35:00
3:55 AM,23.4,18.3,81,30.26,10.0,South,6.9,-,N/A,,Clear,190,2012-12-31 08:55:00
4:15 AM,23.0,18.0,81,30.25,10.0,SSW,6.9,-,N/A,,Clear,200,2012-12-31 09:15:00
4:35 AM,23.0,18.0,81,30.24,10.0,South,6.9,-,N/A,,Clear,190,2012-12-31 09:35:00
4:55 AM,23.9,18.9,81,30.24,10.0,South,8.1,-,N/A,,Clear,190,2012-12-31 09:55:00
5:15 AM,24.6,19.2,80,30.23,10.0,South,8.1,-,N/A,,Clear,190,2012-12-31 10:15:00
5:35 AM,24.6,19.4,81,30.23,10.0,South,8.1,-,N/A,,Clear,190,2012-12-31 10:35:00
5:55 AM,24.8,19.4,80,30.23,10.0,SSW,8.1,-,N/A,,Clear,200,2012-12-31 10:55:00
6:15 AM,24.8,19.4,80,30.22,10.0,South,9.2,-,N/A,,Clear,190,2012-12-31 11:15:00
6:35 AM,25.9,19.9,78,30.22,10.0,South,10.4,-,N/A,,Clear,190,2012-12-31 11:35:00
6:55 AM,26.6,20.3,77,30.22,10.0,SSW,9.2,-,N/A,,Clear,200,2012-12-31 11:55:00
7:15 AM,27.0,20.3,76,30.23,10.0,SSW,10.4,-,N/A,,Clear,200,2012-12-31 12:15:00
7:35 AM,27.1,20.5,76,30.21,10.0,South,10.4,-,N/A,,Clear,190,2012-12-31 12:35:00
7:55 AM,27.5,20.7,75,30.20,10.0,South,11.5,-,N/A,,Clear,180,2012-12-31 12:55:00
8:15 AM,27.7,20.7,75,30.21,10.0,South,11.5,-,N/A,,Clear,190,2012-12-31 13:15:00
8:35 AM,28.2,21.0,74,30.20,10.0,South,11.5,-,N/A,,Clear,180,2012-12-31 13:35:00
8:55 AM,28.6,21.2,74,30.19,10.0,South,12.7,-,N/A,,Clear,190,2012-12-31 13:55:00
9:15 AM,29.3,21.6,73,30.18,10.0,SSW,11.5,-,N/A,,Clear,200,2012-12-31 14:15:00
9:35 AM,29.8,21.9,72,30.18,10.0,SSW,11.5,-,N/A,,Clear,200,2012-12-31 14:35:00
9:55 AM,30.6,22.1,71,30.18,10.0,SSW,10.4,-,N/A,,Scattered Clouds,200,2012-12-31 14:55:00
10:15 AM,31.1,22.6,71,30.18,10.0,SSW,10.4,-,N/A,,Overcast,200,2012-12-31 15:15:00
10:35 AM,31.8,23.4,71,30.18,10.0,SSW,10.4,-,N/A,,Overcast,210,2012-12-31 15:35:00
10:55 AM,32.7,23.4,68,30.18,10.0,SSW,12.7,-,N/A,,Overcast,210,2012-12-31 15:55:00
11:15 AM,33.3,23.7,68,30.18,10.0,SSW,11.5,-,N/A,,Overcast,210,2012-12-31 16:15:00
11:35 AM,33.6,23.7,67,30.17,10.0,SSW,11.5,-,N/A,,Overcast,210,2012-12-31 16:35:00
11:55 AM,33.8,24.1,68,30.17,10.0,SSW,13.8,-,N/A,,Overcast,210,2012-12-31 16:55:00
12:15 PM,33.8,24.4,69,30.16,10.0,SSW,10.4,-,N/A,,Overcast,210,2012-12-31 17:15:00
12:35 PM,33.8,24.8,70,30.15,10.0,SSW,12.7,-,N/A,,Overcast,210,2012-12-31 17:35:00
12:55 PM,34.3,25.2,69,30.13,10.0,SSW,10.4,-,N/A,,Overcast,200,2012-12-31 17:55:00
1:15 PM,34.7,25.7,70,30.12,10.0,SSW,15.0,-,N/A,,Overcast,200,2012-12-31 18:15:00
1:35 PM,33.8,27.7,78,30.11,1.0,SW,10.4,-,N/A,Snow,Light Snow,220,2012-12-31 18:35:00
1:55 PM,32.4,28.9,87,30.09,1.0,SW,6.9,-,N/A,Snow,Light Snow,220,2012-12-31 18:55:00
2:15 PM,32.5,28.6,85,30.06,2.0,WSW,5.8,-,N/A,Snow,Light Snow,240,2012-12-31 19:15:00
2:35 PM,32.9,28.4,84,30.08,10.0,WSW,8.1,-,N/A,,Overcast,250,2012-12-31 19:35:00
2:55 PM,33.1,28.2,82,30.08,10.0,WSW,4.6,-,N/A,,Overcast,240,2012-12-31 19:55:00
3:15 PM,33.4,28.2,81,30.10,7.0,SSW,9.2,-,N/A,,Overcast,200,2012-12-31 20:15:00
3:35 PM,33.6,28.4,81,30.10,2.0,SSW,12.7,-,N/A,Snow,Light Snow,210,2012-12-31 20:35:00
3:55 PM,32.9,28.8,85,30.11,1.0,SW,12.7,17.3,N/A,Snow,Light Snow,220,2012-12-31 20:55:00
4:15 PM,32.0,28.9,88,30.11,1.5,SSW,9.2,-,N/A,Snow,Light Snow,210,2012-12-31 21:15:00
4:35 PM,32.0,28.4,87,30.12,1.2,SSW,9.2,-,N/A,Snow,Light Snow,210,2012-12-31 21:35:00
4:55 PM,31.8,28.4,87,30.10,3.0,SW,8.1,-,N/A,Snow,Light Snow,230,2012-12-31 21:55:00
5:35 PM,33.1,28.4,83,30.08,10.0,SW,8.1,-,N/A,,Overcast,220,2012-12-31 22:35:00
5:55 PM,33.6,28.4,81,30.08,10.0,SW,6.9,-,N/A,,Overcast,220,2012-12-31 22:55:00
6:15 PM,33.4,28.4,82,30.08,10.0,SSW,4.6,-,N/A,,Overcast,200,2012-12-31 23:15:00
6:35 PM,33.8,28.4,81,30.08,10.0,SSW,5.8,-,N/A,,Overcast,200,2012-12-31 23:35:00
6:55 PM,33.6,28.2,81,30.08,10.0,SSW,6.9,-,N/A,,Overcast,200,2012-12-31 23:55:00
7:15 PM,33.8,28.0,79,30.08,10.0,South,10.4,-,N/A,,Overcast,190,2013-01-01 00:15:00
7:35 PM,34.0,27.9,78,30.09,10.0,SSW,12.7,-,N/A,,Overcast,200,2013-01-01 00:35:00
7:55 PM,34.3,28.4,79,30.08,10.0,SSW,15.0,-,N/A,,Overcast,210,2013-01-01 00:55:00
8:15 PM,34.3,28.8,80,30.08,10.0,SSW,13.8,-,N/A,,Overcast,210,2013-01-01 01:15:00
8:35 PM,34.2,28.9,81,30.07,10.0,SSW,10.4,-,N/A,,Overcast,200,2013-01-01 01:35:00
9:15 PM,34.0,29.3,83,30.06,10.0,SSW,12.7,-,N/A,,Overcast,200,2013-01-01 02:15:00
9:35 PM,34.0,29.3,83,30.05,10.0,SSW,13.8,-,N/A,,Overcast,200,2013-01-01 02:35:00
9:55 PM,34.3,29.3,82,30.05,10.0,SSW,11.5,-,N/A,,Overcast,210,2013-01-01 02:55:00
10:15 PM,34.3,29.7,83,30.05,10.0,SSW,9.2,-,N/A,,Overcast,210,2013-01-01 03:15:00
10:35 PM,34.3,29.8,84,30.06,10.0,SW,8.1,-,N/A,,Overcast,230,2013-01-01 03:35:00
11:15 PM,34.3,29.8,84,30.05,10.0,WSW,5.8,-,N/A,,Overcast,240,2013-01-01 04:15:00
11:35 PM,34.3,30.0,84,30.05,4.0,SW,6.9,-,N/A,Snow,Light Snow,230,2013-01-01 04:35:00
11:55 PM,34.0,30.2,86,30.06,7.0,SW,5.8,-,N/A,,Overcast,230,2013-01-01 04:55:00